Airfield :
LOGIN :

Register | Disclaimer

   EN    FR    IT 

 










Legend :    VFR   Marginal VFR   IFR   Intensive IFR   Very Intensive IFR
Visi :
Ceiling :
>= 8 km
>= 3000ft
5 to 8 km
1000 to 3000 ft
1500m to 5 km
500 to 1000 ft
800 to 1500m
200 to 500 ft
< 800m
< 200 ft
Symbols :   Thunderstorms  Fog  Heavy snow  Heavy precipitations  Wind > 20 kt
SIGMETs :     Misc.  Thunderstorms  Icing  Turbulence  Mountain Waves  Volcanic Ashes







- Airport Elevation : 13 ft
- IATA code : LYX
- Download approach charts


EGMD - Lydd

CURRENT METAR :
  • 161120Z 22020KT 9999 BKN013 08/07 Q1007

EXPIRED METARs :
  • 161050Z 22021KT 9999 BKN013 08/07 Q1008
  • 161020Z 22021KT 9000 BKN013 08/06 Q1008
  • 160950Z 22022KT 9000 BKN012 08/06 Q1009
  • 160920Z 22023KT 9000 BKN012 BKN016 08/06 Q1009
  • 160850Z 22022KT 9000 BKN010 BKN015 08/06 Q1009

TAF TAF EGMD
Valid from the 16 at 12:00 until the 16 at 21:00 UTC


161102Z 1612/1621 23016KT 9999 FEW012 SCT030
TEMPO 1612/1621 23022G32KT 8000 -RADZ BKN008
PROB30
TEMPO 1612/1621 4000 RADZ
ATIS : +44 1797 322 422
No reported NOTAMs for that airfield.



MET'MAP, your aeronautical weather chart ! - Copyright ORBIFLY December 2007 - Disclaimer

ORBIFLY MET'MAP TEAM :

Programming & Development : Alexandra Zaïnal
Concept & Development : Baudouin d'Aumeries
Co-Development & Prog : Marc-Olivier Méhu
Technical & hardware support : Manuel Goepfert

Contact : metmap@orbifly.com




SOURCES & CREDITS :

   NOAA